Location: McFarlands Corners
(41.4117°N, 81.3382°W)
Time: 14:19:51
(UTC+00:00)

Tiros 1 despin weight - Pass Details

Date: 20 February 2026
Orbit: 556 x 593 km, 48.2° (Epoch: 11 March)

Event Time Altitude Azimuth Distance (km) Brightness Sun altitude
Rises 02:58:26 0° 283° (WNW) 2,735 ? -43.5°
Enters shadow 02:59:00 - 280° (W) 2,551 ? -43.6°
Reaches altitude 10° 03:01:44 10° 256° (WSW) 1,840 - -44.0°
Maximum altitude 03:03:43 13° 227° (SW) 1,648 - -44.4°
Drops below altitude 10° 03:05:41 10° 199° (SSW) 1,842 - -44.7°
Sets 03:09:00 0° 172° (S) 2,741 - -45.2°
